Weather History for KOTM - May, 2013

Change the Weather History Date:

Friday, May 24, 2013

  Actual Average Record
Temperature  
Mean Temperature 57 °F 64 °F  
Max Temperature 69 °F 75 °F 98 °F (1939)
Min Temperature 45 °F 53 °F 37 °F (1931)
Degree Days  
Heating Degree Days 8 4  
Month to date heating degree days 167 147  
Since 1 July heating degree days 6227 6277  
Cooling Degree Days 0 2  
Month to date cooling degree days 44 33  
Year to date cooling degree days 56 44  
Growing Degree Days 7 (Base 50)    
Moisture  
Dew Point 44 °F    
Average Humidity 66    
Maximum Humidity 93    
Minimum Humidity 39    
Precipitation  
Precipitation T in 0.16 in 1.85 in (1907)
Month to date precipitation 3.44 3.59  
Year to date precipitation 17.37 11.41  
Sea Level Pressure  
Sea Level Pressure 30.30 in    
Wind  
Wind Speed 10 mph (SE)    
Max Wind Speed 21 mph    
Max Gust Speed 26 mph    
Visibility 10 miles    
Events Rain    
T = Trace of Precipitation, MM = Missing Value Source: NWS Daily Summary

Daily Weather History Graph

Daily Weather History Graph

Search for Another Location

Airport or City:

Trip Planner

Search our weather history database for the weather conditions in past years. The results will help you decide how hot, cold, wet, or windy it might be!

Date:

Astronomy

May. 24, 2013 Rise Set
Actual Time 5:44 AM CDT 8:29 PM CDT
Civil Twilight 5:11 AM CDT 9:02 PM CDT
Nautical Twilight 4:31 AM CDT 9:42 PM CDT
Astronomical Twilight 3:44 AM CDT 10:29 PM CDT
Moon 8:12 PM CDT (5/24) 5:16 AM CDT (5/24)
Length of Visible Light 15h 50m
Length of Day
14h 45m
Full, 100% of the Moon is Illuminated
May 24
Full
May 24
Full
May 31
Last Quarter
Jun 8
New
Jun 16
First Quarter

Hourly Weather History & Observations

Time (CDT) Temp. Windchill Dew Point Humidity Pressure Visibility Wind Dir Wind Speed Gust Speed Precip Events Conditions
12:53 AM 53.1 °F - 42.1 °F 66% 30.28 in 10.0 mi NE 5.8 mph - N/A   Clear
1:53 AM 51.1 °F - 42.1 °F 71% 30.28 in 10.0 mi ENE 5.8 mph - N/A   Clear
2:53 AM 50.0 °F - 42.1 °F 74% 30.28 in 10.0 mi NE 6.9 mph - N/A   Clear
3:53 AM 48.9 °F - 42.1 °F 77% 30.30 in 10.0 mi ENE 5.8 mph - N/A   Clear
4:53 AM 46.9 °F - 41.0 °F 80% 30.32 in 10.0 mi East 5.8 mph - N/A   Clear
5:53 AM 46.0 °F 42.5 °F 42.1 °F 86% 30.34 in 10.0 mi ESE 6.9 mph - N/A   Clear
6:53 AM 48.9 °F - 46.0 °F 90% 30.36 in 9.0 mi SE 5.8 mph - N/A   Clear
7:53 AM 54.0 °F - 48.9 °F 83% 30.38 in 10.0 mi SSE 9.2 mph - N/A   Clear
8:53 AM 57.0 °F - 46.0 °F 67% 30.39 in 10.0 mi SE 12.7 mph - N/A   Clear
9:53 AM 60.1 °F - 46.0 °F 60% 30.40 in 10.0 mi SSE 10.4 mph - N/A   Clear
10:53 AM 61.0 °F - 46.0 °F 58% 30.39 in 10.0 mi SSE 10.4 mph - N/A   Clear
11:53 AM 63.0 °F - 46.0 °F 54% 30.37 in 10.0 mi ESE 10.4 mph 18.4 mph N/A   Partly Cloudy
12:53 PM 64.9 °F - 46.0 °F 50% 30.36 in 10.0 mi South 15.0 mph - N/A   Partly Cloudy
1:53 PM 66.0 °F - 45.0 °F 47% 30.34 in 10.0 mi SE 13.8 mph 17.3 mph N/A   Partly Cloudy
2:53 PM 66.9 °F - 45.0 °F 45% 30.32 in 10.0 mi SE 9.2 mph 18.4 mph N/A   Clear
3:53 PM 68.0 °F - 44.1 °F 42% 30.28 in 10.0 mi SE 15.0 mph 21.9 mph N/A   Clear
4:53 PM 68.0 °F - 43.0 °F 40% 30.27 in 10.0 mi SSE 11.5 mph 20.7 mph N/A   Clear
5:53 PM 66.9 °F - 42.1 °F 40% 30.25 in 10.0 mi SSE 13.8 mph 21.9 mph N/A   Clear
6:53 PM 66.0 °F - 42.1 °F 42% 30.25 in 10.0 mi SSE 10.4 mph - N/A   Clear
7:53 PM 62.1 °F - 43.0 °F 50% 30.24 in 8.0 mi SE 9.2 mph - N/A   Clear
8:53 PM 61.0 °F - 43.0 °F 52% 30.22 in 10.0 mi ESE 10.4 mph - N/A   Clear
9:53 PM 61.0 °F - 44.1 °F 54% 30.27 in 10.0 mi East 9.2 mph - N/A   Overcast
10:53 PM 57.9 °F - 46.0 °F 65% 30.19 in 10.0 mi ESE 18.4 mph - 0.00 in   Overcast
11:10 PM 57.2 °F - 46.4 °F 67% 30.22 in 10.0 mi SSE 11.5 mph - 0.00 in Rain Light Rain
11:53 PM 55.9 °F - 45.0 °F 67% 30.24 in 10.0 mi SE 9.2 mph - 0.00 in   Clear